{"data":{"norad_id":57602,"epoch":"2026-09-19T18:54:54.643680Z","epoch_age_seconds":189500,"freshness":"STALE","line1":"1 57602U 23119A   26262.78813245  .00000098  00000+0  13099-4 0  9994","line2":"2 57602  43.0042  65.2081 0001734 274.4471  85.6182 15.27576584172719","mean_motion":15.27576584,"eccentricity":0.0001734,"inclination_deg":43.0042,"raan_deg":65.2081,"arg_perigee_deg":274.4471,"mean_anomaly_deg":85.6182,"bstar":1.3099e-5,"rev_number":17271,"period_min":94.266959515007,"perigee_km":481.8695933489,"apogee_km":484.24905623433,"semimajor_km":6861.1963247916,"source":"CELESTRAK","updated_at":"2026-09-21T09:00:33.639718Z"}}